Location: Unspecified
(0.0000°N, 0.0000°E)
Time: 13:14:00
(UTC+00:00)

Vanguard 2 - Pass Details

Date: 20 September 2019
Orbit: 554 x 2937 km, 32.9° (Epoch: 13 October)

Event Time Altitude Azimuth Distance (km) Brightness Sun altitude
Rises 00:25:41 0° 243° (WSW) 6,704 - -81.9°
Reaches altitude 10° 00:30:10 10° 246° (WSW) 5,756 - -80.8°
Maximum altitude 00:47:47 62° 322° (NW) 2,916 - -76.4°
Drops below altitude 10° 01:01:12 10° 41° (NE) 4,493 - -73.1°
Exits shadow 01:02:58 - 44° (NE) 4,902 11.8 -72.6°
Sets 01:04:15 0° 45° (NE) 5,212 12.0 -72.3°
